This is the latest recevied weather packets stored in our database for station/object KD4EG. If no packets are shown the sender has not sent any weather packets the latest 10 day(s).
| Time | Temp. | Humidity | Pressure | Rain* | Wind** | Luminosity | Snow |
|---|---|---|---|---|---|---|---|
| 1777362718 | 12.22° C | 79% | 1024.6 hPa | 0 mm | - | 0 W/m² | - |
| 1777362416 | 12.22° C | 78% | 1024.2 hPa | 0 mm | - | 0 W/m² | - |
| 1777362113 | 12.78° C | 77% | 1023.8 hPa | 0 mm | - | 0 W/m² | - |
| 1777361810 | 12.78° C | 77% | 1023.6 hPa | 0 mm | - | 0 W/m² | - |
| 1777361507 | 12.78° C | 77% | 1023.6 hPa | 0 mm | - | 0 W/m² | - |
| 1777361204 | 12.22° C | 77% | 1023.6 hPa | 0 mm | - | 0 W/m² | - |
| 1777360901 | 12.22° C | 77% | 1023.7 hPa | 0 mm | - | 0 W/m² | - |
| 1777360599 | 12.22° C | 77% | 1023.3 hPa | 0 mm | - | 0 W/m² | - |
| 1777360295 | 11.67° C | 79% | 1023.3 hPa | 0 mm | - | 0 W/m² | - |
| 1777359993 | 11.67° C | 78% | 1023.4 hPa | 0 mm | - | 0 W/m² | - |
| 1777359689 | 11.67° C | 78% | 1023.3 hPa | 0 mm | - | 0 W/m² | - |
| 1777359386 | 11.67° C | 79% | 1022.9 hPa | 0 mm | - | 0 W/m² | - |
| 1777359083 | 11.11° C | 81% | 1023.3 hPa | 0 mm | - | 0 W/m² | - |
| 1777358781 | 11.11° C | 80% | 1023.4 hPa | 0 mm | - | 0 W/m² | - |
| 1777358478 | 11.67° C | 79% | 1023.4 hPa | 0 mm | - | 0 W/m² | - |
| 1777358176 | 11.11° C | 79% | 1023.4 hPa | 0 mm | - | 0 W/m² | - |
| 1777357874 | 11.11° C | 81% | 1023.5 hPa | 0 mm | - | 0 W/m² | - |
| 1777357571 | 11.11° C | 81% | 1023.9 hPa | 0 mm | - | 0 W/m² | - |
| 1777357267 | 11.11° C | 81% | 1024 hPa | 0 mm | - | 0 W/m² | - |
| 1777356964 | 11.11° C | 82% | 1024 hPa | 0 mm | - | 0 W/m² | - |
| 1777356662 | 11.11° C | 81% | 1024 hPa | 0 mm | - | 0 W/m² | - |
| 1777356359 | 11.11° C | 81% | 1024 hPa | 0 mm | - | 0 W/m² | - |
| 1777356055 | 11.11° C | 81% | 1024.2 hPa | 0 mm | - | 0 W/m² | - |
| 1777355752 | 11.11° C | 81% | 1024 hPa | 0 mm | - | 0 W/m² | - |
| 1777355449 | 11.11° C | 80% | 1024.6 hPa | 0 mm | - | 0 W/m² | - |
* Rain latest hour (hover to see other rain measurements)
** Current wind speed in m/s (hover to see current wind gust speed)